When you browse on this site, cookies collect data to enhance your experience and personalize the content and advertising you see.
Visit our Privacy Policy to learn more. By continuing to use the site, you agree to this use of cookies and data.
  • In Spain
  • List of Countries
  • For 7 days
  • Water Temperature
  • Weather Map
  • Weather Widgets
  • user-avatar
    Login

    Hourly Weather Namibe

    Today, 1 June, Monday

    Time Temperature Precipitation Wind Pressure Humidity
    00:00 +26°C° 0 mm 2 mps 759 mmHg 51%
    01:00 +25°C° 0 mm 2 mps 759 mmHg 49%
    02:00 +25°C° 0 mm 2 mps 759 mmHg 49%
    03:00 +25°C° 0 mm 3 mps 759 mmHg 49%
    04:00 +25°C° 0 mm 3 mps 758 mmHg 49%
    05:00 +25°C° 0 mm 3 mps 759 mmHg 47%
    06:00 +26°C° 0 mm 2 mps 759 mmHg 45%
    07:00 +26°C° 0 mm 2 mps 759 mmHg 43%
    08:00 +29°C° 0 mm 2 mps 759 mmHg 37%
    09:00 +31°C° 0 mm 2 mps 759 mmHg 31%
    10:00 +35°C° 0 mm 2 mps 759 mmHg 24%
    11:00 +35°C° 0 mm 2 mps 759 mmHg 26%
    12:00 +36°C° 0 mm 3 mps 758 mmHg 27%
    13:00 +36°C° 0 mm 4 mps 758 mmHg 28%
    14:00 +35°C° 0 mm 4 mps 757 mmHg 33%
    15:00 +34°C° 0 mm 4 mps 757 mmHg 37%
    16:00 +32°C° 0 mm 4 mps 757 mmHg 41%
    17:00 +30°C° 0 mm 3 mps 757 mmHg 49%
    18:00 +28°C° 0 mm 3 mps 758 mmHg 57%
    19:00 +27°C° 0 mm 2 mps 758 mmHg 65%
    20:00 +26°C° 0 mm 2 mps 759 mmHg 66%
    21:00 +26°C° 0 mm 2 mps 759 mmHg 67%
    22:00 +26°C° 0 mm 2 mps 759 mmHg 67%
    23:00 +26°C° 0 mm 2 mps 760 mmHg 65%

    Tomorrow, 2 June, Tuesday

    Time Temperature Precipitation Wind Pressure Humidity
    00:00 +25°C° 0 mm 2 mps 760 mmHg 63%
    01:00 +25°C° 0 mm 2 mps 760 mmHg 60%
    02:00 +25°C° 0 mm 2 mps 760 mmHg 59%
    03:00 +25°C° 0 mm 2 mps 759 mmHg 57%
    04:00 +25°C° 0 mm 3 mps 759 mmHg 55%
    05:00 +25°C° 0 mm 2 mps 759 mmHg 55%
    06:00 +24°C° 0 mm 2 mps 759 mmHg 55%
    07:00 +24°C° 0 mm 2 mps 760 mmHg 55%
    08:00 +27°C° 0 mm 2 mps 760 mmHg 49%
    09:00 +29°C° 0 mm 2 mps 760 mmHg 42%
    10:00 +31°C° 0 mm 1 mps 760 mmHg 36%
    11:00 +32°C° 0 mm 2 mps 759 mmHg 35%
    12:00 +33°C° 0 mm 3 mps 758 mmHg 35%
    13:00 +34°C° 0 mm 3 mps 758 mmHg 34%
    14:00 +33°C° 0 mm 4 mps 758 mmHg 39%
    15:00 +32°C° 0 mm 4 mps 757 mmHg 43%
    16:00 +29°C° 0 mm 5 mps 757 mmHg 47%
    17:00 +28°C° 0 mm 4 mps 757 mmHg 55%
    18:00 +27°C° 0 mm 3 mps 758 mmHg 63%
    19:00 +25°C° 0 mm 2 mps 758 mmHg 71%
    20:00 +25°C° 0 mm 2 mps 758 mmHg 70%
    21:00 +25°C° 0 mm 2 mps 759 mmHg 69%
    22:00 +25°C° 0 mm 2 mps 759 mmHg 68%
    23:00 +25°C° 0 mm 2 mps 759 mmHg 65%

    Day after tomorrow, 3 June, Wednesday

    Time Temperature Precipitation Wind Pressure Humidity
    00:00 +26°C° 0 mm 1 mps 759 mmHg 62%
    01:00 +26°C° 0 mm 1 mps 759 mmHg 59%
    02:00 +26°C° 0 mm 1 mps 759 mmHg 60%
    03:00 +26°C° 0 mm 1 mps 758 mmHg 61%
    04:00 +26°C° 0 mm 1 mps 758 mmHg 61%
    05:00 +25°C° 0 mm 2 mps 758 mmHg 62%
    06:00 +25°C° 0 mm 2 mps 758 mmHg 63%
    07:00 +25°C° 0 mm 2 mps 758 mmHg 63%
    08:00 +26°C° 0 mm 2 mps 759 mmHg 56%
    09:00 +28°C° 0 mm 2 mps 759 mmHg 49%
    10:00 +30°C° 0 mm 2 mps 759 mmHg 41%
    11:00 +31°C° 0 mm 3 mps 758 mmHg 39%
    12:00 +33°C° 0 mm 3 mps 758 mmHg 37%
    13:00 +34°C° 0 mm 4 mps 757 mmHg 35%
    14:00 +33°C° 0 mm 4 mps 757 mmHg 39%
    15:00 +32°C° 0 mm 4 mps 757 mmHg 42%
    16:00 +30°C° 0 mm 5 mps 756 mmHg 45%
    17:00 +28°C° 0 mm 4 mps 757 mmHg 50%
    18:00 +27°C° 0 mm 3 mps 757 mmHg 55%
    19:00 +26°C° 0 mm 2 mps 758 mmHg 61%
    20:00 +25°C° 0 mm 2 mps 758 mmHg 62%
    21:00 +25°C° 0 mm 1 mps 758 mmHg 63%
    22:00 +25°C° 0 mm 1 mps 759 mmHg 65%
    23:00 +24°C° 0 mm 1 mps 758 mmHg 65%

    4 June, Thursday

    Time Temperature Precipitation Wind Pressure Humidity
    00:00 +24°C° 0 mm 1 mps 758 mmHg 64%
    01:00 +24°C° 0 mm 1 mps 758 mmHg 64%
    02:00 +23°C° 0 mm 1 mps 758 mmHg 66%
    03:00 +23°C° 0 mm 1 mps 758 mmHg 67%
    04:00 +23°C° 0 mm 1 mps 758 mmHg 69%
    05:00 +23°C° 0 mm 1 mps 758 mmHg 67%
    06:00 +23°C° 0 mm 1 mps 758 mmHg 65%
    07:00 +23°C° 0 mm 1 mps 759 mmHg 63%
    08:00 +25°C° 0 mm 1 mps 759 mmHg 56%
    09:00 +27°C° 0 mm 1 mps 759 mmHg 49%
    10:00 +30°C° 0 mm 1 mps 759 mmHg 41%
    11:00 +30°C° 0 mm 2 mps 758 mmHg 40%
    12:00 +31°C° 0 mm 3 mps 758 mmHg 39%
    13:00 +33°C° 0 mm 4 mps 757 mmHg 38%
    14:00 +32°C° 0 mm 4 mps 757 mmHg 42%
    15:00 +30°C° 0 mm 4 mps 757 mmHg 46%
    16:00 +28°C° 0 mm 4 mps 757 mmHg 50%
    17:00 +27°C° 0 mm 3 mps 757 mmHg 57%
    18:00 +26°C° 0 mm 3 mps 758 mmHg 63%
    19:00 +25°C° 0 mm 2 mps 758 mmHg 69%
    20:00 +25°C° 0 mm 2 mps 758 mmHg 70%
    21:00 +24°C° 0 mm 2 mps 759 mmHg 70%
    22:00 +24°C° 0 mm 2 mps 759 mmHg 71%
    23:00 +24°C° 0 mm 1 mps 759 mmHg 68%

    5 June, Friday

    Time Temperature Precipitation Wind Pressure Humidity
    00:00 +24°C° 0 mm 1 mps 759 mmHg 65%
    01:00 +22°C° 0 mm 0 mps 759 mmHg 63%
    02:00 +24°C° 0 mm 1 mps 759 mmHg 63%
    03:00 +23°C° 0 mm 1 mps 759 mmHg 63%
    04:00 +23°C° 0 mm 2 mps 758 mmHg 63%
    05:00 +24°C° 0 mm 2 mps 759 mmHg 61%
    06:00 +24°C° 0 mm 3 mps 759 mmHg 59%
    07:00 +24°C° 0 mm 3 mps 759 mmHg 57%
    08:00 +27°C° 0 mm 2 mps 759 mmHg 48%
    09:00 +30°C° 0 mm 2 mps 759 mmHg 39%
    10:00 +32°C° 0 mm 2 mps 759 mmHg 31%
    11:00 +34°C° 0 mm 3 mps 759 mmHg 31%
    12:00 +34°C° 0 mm 3 mps 758 mmHg 32%
    13:00 +35°C° 0 mm 4 mps 758 mmHg 33%
    14:00 +34°C° 0 mm 4 mps 757 mmHg 35%
    15:00 +33°C° 0 mm 4 mps 757 mmHg 37%
    16:00 +32°C° 0 mm 4 mps 757 mmHg 40%
    17:00 +29°C° 0 mm 4 mps 757 mmHg 46%
    18:00 +28°C° 0 mm 3 mps 758 mmHg 53%
    19:00 +26°C° 0 mm 3 mps 758 mmHg 59%
    20:00 +26°C° 0 mm 3 mps 759 mmHg 58%
    21:00 +25°C° 0 mm 2 mps 759 mmHg 56%
    22:00 +25°C° 0 mm 2 mps 759 mmHg 54%
    23:00 +25°C° 0 mm 2 mps 759 mmHg 52%

    6 June, Saturday

    Time Temperature Precipitation Wind Pressure Humidity
    00:00 +25°C° 0 mm 2 mps 759 mmHg 50%
    01:00 +25°C° 0 mm 2 mps 759 mmHg 47%
    02:00 +25°C° 0 mm 2 mps 759 mmHg 48%
    03:00 +25°C° 0 mm 2 mps 759 mmHg 48%
    04:00 +24°C° 0 mm 3 mps 759 mmHg 49%
    05:00 +25°C° 0 mm 3 mps 759 mmHg 48%
    06:00 +25°C° 0 mm 3 mps 759 mmHg 47%
    07:00 +25°C° 0 mm 3 mps 759 mmHg 47%
    08:00 +28°C° 0 mm 3 mps 759 mmHg 38%
    09:00 +31°C° 0 mm 3 mps 759 mmHg 30%
    10:00 +36°C° 0 mm 3 mps 759 mmHg 22%
    11:00 +36°C° 0 mm 3 mps 758 mmHg 22%
    12:00 +37°C° 0 mm 4 mps 758 mmHg 23%
    13:00 +37°C° 0 mm 4 mps 757 mmHg 24%
    14:00 +36°C° 0 mm 4 mps 757 mmHg 27%
    15:00 +35°C° 0 mm 4 mps 756 mmHg 30%
    16:00 +34°C° 0 mm 4 mps 756 mmHg 32%
    17:00 +32°C° 0 mm 4 mps 757 mmHg 42%
    18:00 +29°C° 0 mm 3 mps 757 mmHg 51%
    19:00 +26°C° 0 mm 3 mps 757 mmHg 60%
    20:00 +26°C° 0 mm 2 mps 758 mmHg 59%
    21:00 +26°C° 0 mm 2 mps 758 mmHg 58%
    22:00 +26°C° 0 mm 2 mps 759 mmHg 57%
    23:00 +25°C° 0 mm 2 mps 759 mmHg 54%
    Show more